FW9515 Weather Reports


Display with metric or nautical units.
time (UTC)temp
F
wind
direction
speed
MPH
gust
MPH
rain 1hr
in
rain 24hr
in
rain mn
in
humidity
%
barometer
mb
20260506111631 53 313 1.0 4.0 0.05 0.67 0.11 96 1006.1
20260506111132 53 47 1.0 6.0 0.05 0.67 0.11 96 1006.1
20260506110900 53 313 2.0 6.0 0.05 0.67 0.11 96 1006.0
20260506110146 53 294 2.0 6.0 0.05 0.67 0.11 96 1006.0
20260506105632 52 53 1.0 3.0 0.04 0.66 0.10 96 1006.0
20260506105132 52 31 1.0 3.0 0.04 0.66 0.10 96 1006.1
20260506104634 52 40 1.0 2.0 0.04 0.66 0.10 96 1006.0
20260506104132 52 324 1.0 3.0 0.03 0.65 0.09 95 1006.0
20260506103635 52 287 1.0 3.0 0.03 0.65 0.09 96 1006.0
20260506103132 52 301 1.0 2.0 0.02 0.65 0.09 96 1006.1
20260506102631 52 49 1.0 2.0 0.02 0.64 0.08 96 1006.0
20260506102131 52 13 0.0 2.0 0.01 0.63 0.07 96 1005.9
20260506101901 52 329 0.0 2.0 0.00 0.62 0.06 96 1006.0
20260506101130 52 61 0.0 2.0 0.00 0.62 0.06 96 1005.9
20260506100630 52 321 0.0 2.0 0.00 0.62 0.06 96 1005.9
20260506100130 52 315 1.0 3.0 0.00 0.62 0.06 96 1005.9
20260506095625 52 32 1.0 4.0 0.01 0.62 0.06 96 1005.9
20260506095125 52 298 1.0 6.0 0.01 0.62 0.06 96 1005.7
20260506094625 52 339 1.0 6.0 0.01 0.62 0.06 96 1005.8
20260506094125 52 5 1.0 4.0 0.01 0.62 0.06 96 1005.7
20260506093625 51 336 1.0 4.0 0.01 0.62 0.06 96 1005.7
20260506093356 51 331 1.0 3.0 0.01 0.62 0.06 96 1005.7
20260506092623 51 355 0.0 2.0 0.01 0.62 0.06 96 1005.6
20260506092125 51 355 1.0 2.0 0.01 0.62 0.06 96 1005.7
20260506091623 51 348 1.0 2.0 0.01 0.62 0.06 95 1005.7
20260506091121 51 348 1.0 2.0 0.01 0.62 0.06 96 1005.7
20260506090619 52 350 0.0 4.0 0.01 0.62 0.06 96 1005.7
20260506090125 52 339 0.0 4.0 0.01 0.62 0.06 96 1005.6
20260506085615 52 340 0.0 2.0 0.00 0.61 0.06 96 1005.6
20260506085343 52 345 0.0 2.0 0.00 0.61 0.06 96 1005.5
20260506084612 52 12 1.0 2.0 0.00 0.61 0.06 96 1005.6
20260506084109 51 351 0.0 2.0 0.00 0.61 0.06 96 1005.4
20260506083607 51 355 0.0 2.0 0.00 0.61 0.06 96 1005.4
20260506083339 51 340 0.0 2.0 0.00 0.61 0.06 96 1005.4
20260506082612 51 340 1.0 2.0 0.00 0.61 0.06 96 1005.4
20260506082111 51 340 0.0 2.0 0.00 0.61 0.06 96 1005.4
20260506081606 51 288 0.0 2.0 0.00 0.61 0.06 96 1005.5
20260506081105 51 351 0.0 2.0 0.00 0.61 0.06 96 1005.4
20260506080604 51 351 0.0 2.0 0.00 0.61 0.06 96 1005.4
20260506080104 51 338 1.0 3.0 0.00 0.61 0.06 96 1005.4
20260506073058 51 331 0.0 1.0 0.00 0.61 0.06 96 1005.3
20260506072555 51 327 0.0 1.0 0.00 0.61 0.06 96 1005.2
20260506072053 51 305 0.0 1.0 0.00 0.61 0.06 96 1005.2
20260506071821 51 305 0.0 2.0 0.00 0.61 0.06 96 1005.2
20260506071050 51 305 0.0 2.0 0.00 0.61 0.06 96 1005.2
20260506070548 51 305 0.0 1.0 0.00 0.61 0.06 96 1005.2
20260506062040 51 305 0.0 1.0 0.02 0.61 0.06 96 1005.0
20260506061812 51 305 0.0 1.0 0.03 0.61 0.06 96 1005.0
20260506061040 51 304 0.0 0.0 0.04 0.61 0.06 97 1004.9
20260506060540 51 304 0.0 0.0 0.05 0.61 0.06 97 1005.0
20260506051041 50 286 1.0 3.0 0.01 0.57 0.02 96 1005.1
20260506050808 50 306 1.0 3.0 0.00 0.57 0.01 96 1005.2
20260506045040 50 313 0.0 2.0 0.00 0.57 0.01 96 1005.3
20260506044541 50 313 0.0 2.0 0.00 0.57 0.01 96 1005.2
20260506044312 50 309 0.0 2.0 0.00 0.57 0.01 96 1005.1
20260506043537 50 334 0.0 1.0 0.00 0.57 0.01 96 1005.2
20260506043036 50 335 0.0 2.0 0.00 0.57 0.01 96 1005.2
20260506042803 50 338 0.0 3.0 0.00 0.57 0.01 96 1005.3
20260506042037 50 336 1.0 3.0 0.00 0.57 0.01 96 1005.3
20260506041534 50 286 1.0 3.0 0.00 0.57 0.01 96 1005.3
20260506041035 50 294 1.0 2.0 0.00 0.57 0.01 96 1005.3
20260506040534 50 296 0.0 2.0 0.00 0.57 0.01 96 1005.2
20260506040033 50 302 0.0 1.0 0.00 0.57 0.01 96 1005.2
20260506035533 50 302 0.0 1.0 0.00 0.57 0.01 96 1005.3
20260506035032 50 302 0.0 0.0 0.00 0.57 0.01 96 1005.2
20260506034532 50 302 0.0 1.0 0.00 0.57 0.01 96 1005.2
20260506034031 50 302 0.0 1.0 0.00 0.57 0.01 96 1005.2
20260506033531 50 301 0.0 1.0 0.00 0.57 0.01 96 1005.3
20260506033254 50 301 0.0 2.0 0.00 0.57 0.01 96 1005.3
20260506032752 50 301 0.0 2.0 0.00 0.57 0.01 96 1005.4
20260506032300 50 304 1.0 4.0 0.00 0.57 0.01 96 1005.3
20260506031750 50 301 1.0 4.0 0.00 0.57 0.01 96 1005.3
20260506031016 50 288 1.0 3.0 0.00 0.57 0.01 96 1005.3
20260506030516 50 299 1.0 3.0 0.00 0.57 0.01 96 1005.4
20260506030015 50 340 0.0 3.0 0.00 0.57 0.01 96 1005.4
20260506025511 50 276 0.0 3.0 0.00 0.57 0.01 96 1005.5
20260506025010 50 304 0.0 2.0 0.00 0.57 0.01 96 1005.5
20260506024510 50 292 0.0 2.0 0.00 0.57 0.01 96 1005.6
20260506024007 50 339 0.0 2.0 0.00 0.57 0.01 96 1005.6
20260506023504 50 269 1.0 4.0 0.00 0.57 0.01 96 1005.5
20260506023009 50 295 1.0 4.0 0.00 0.57 0.01 96 1005.6
20260506022726 50 296 1.0 4.0 0.00 0.57 0.01 96 1005.6
20260506022002 50 294 1.0 4.0 0.00 0.57 0.01 96 1005.6
20260506021501 50 286 2.0 4.0 0.00 0.57 0.01 96 1005.7
20260506021012 50 277 2.0 4.0 0.00 0.57 0.01 96 1005.8
20260506020006 50 295 1.0 2.0 0.00 0.57 0.01 96 1005.8
20260506015501 51 317 0.0 2.0 0.00 0.57 0.01 96 1005.8
20260506015227 50 305 1.0 4.0 0.00 0.57 0.01 96 1005.8
20260506014500 51 309 1.0 4.0 0.00 0.57 0.01 96 1005.9
20260506014002 51 335 1.0 4.0 0.00 0.57 0.01 96 1006.0
20260506013501 51 330 1.0 4.0 0.00 0.57 0.01 96 1006.0
20260506013226 51 323 1.0 2.0 0.00 0.57 0.01 96 1006.0
20260506012450 50 298 1.0 3.0 0.00 0.57 0.01 96 1006.0
20260506011945 51 279 2.0 4.0 0.00 0.57 0.01 96 1006.0
20260506011439 50 301 2.0 4.0 0.00 0.57 0.01 95 1006.1
20260506010932 51 279 1.0 4.0 0.00 0.57 0.01 95 1006.0
20260506010430 51 298 1.0 3.0 0.00 0.57 0.01 95 1006.0
20260506005933 51 283 1.0 3.0 0.00 0.57 0.01 95 1006.0
20260506005430 51 34 1.0 3.0 0.00 0.57 0.01 95 1006.0
20260506004930 51 158 1.0 6.0 0.00 0.57 0.01 95 1006.0
20260506004430 51 306 1.0 6.0 0.00 0.57 0.01 95 1006.1
20260506003934 51 311 1.0 6.0 0.00 0.57 0.01 95 1006.0
20260506003658 51 350 1.0 4.0 0.00 0.57 0.01 95 1005.9
20260506002929 51 331 0.0 4.0 0.00 0.57 0.01 95 1006.0
20260506001929 51 296 2.0 6.0 0.00 0.57 0.01 95 1006.1
20260506001431 51 288 2.0 6.0 0.00 0.57 0.01 95 1006.2
20260506000929 51 292 2.0 6.0 0.00 0.57 0.01 95 1006.2
20260506000654 51 299 2.0 5.0 0.00 0.57 0.01 95 1006.3
20260505235928 51 315 2.0 5.0 0.00 0.57 0.01 95 1006.3
20260505235700 51 293 2.0 5.0 0.00 0.57 0.01 95 1006.3
20260505234929 51 302 2.0 6.0 0.00 0.57 0.01 95 1006.5
20260505234431 51 321 2.0 6.0 0.00 0.57 0.01 95 1006.5
20260505233925 51 284 2.0 6.0 0.00 0.57 0.01 95 1006.5
20260505233418 51 5 2.0 6.0 0.00 0.57 0.01 95 1006.7
20260505232914 51 278 2.0 4.0 0.00 0.57 0.01 95 1006.7
20260505232414 51 288 1.0 4.0 0.00 0.57 0.01 95 1006.7
20260505231915 52 299 1.0 6.0 0.00 0.57 0.01 95 1006.7
20260505231640 52 305 1.0 6.0 0.00 0.57 0.01 95 1006.6
20260505230916 52 289 1.0 5.0 0.01 0.57 0.01 95 1006.5
20260505230414 52 303 1.0 3.0 0.01 0.57 0.01 95 1006.6
20260505225912 52 327 2.0 7.0 0.01 0.57 0.01 95 1006.7
20260505225412 52 348 1.0 7.0 0.01 0.57 0.01 95 1006.6
20260505224913 52 281 1.0 6.0 0.01 0.57 0.01 95 1006.7
20260505224641 52 286 1.0 3.0 0.01 0.57 0.01 95 1006.9
20260505223908 52 292 1.0 4.0 0.01 0.57 0.01 95 1006.7
20260505223408 52 285 2.0 5.0 0.01 0.57 0.01 95 1006.8
20260505222909 52 297 2.0 6.0 0.01 0.57 0.01 95 1006.9
20260505222408 52 285 2.0 6.0 0.01 0.57 0.01 94 1006.8
20260505221909 52 270 2.0 6.0 0.01 0.57 0.01 94 1006.8
20260505221406 52 322 3.0 7.0 0.02 0.57 0.01 94 1006.8
20260505220906 52 275 3.0 7.0 0.01 0.56 0.00 94 1006.8
20260505220405 53 300 2.0 5.0 0.01 0.56 0.00 94 1006.8
20260505215902 53 276 1.0 5.0 0.01 0.56 0.56 95 1006.8
20260505215356 53 286 1.0 5.0 0.02 0.56 0.56 94 1006.8
20260505214850 53 310 2.0 6.0 0.02 0.56 0.56 94 1006.8
20260505214351 53 277 2.0 6.0 0.02 0.56 0.56 94 1006.9
20260505214209 53 275 2.0 6.0 0.03 0.56 0.56 94 1006.9
20260505213344 53 284 1.0 5.0 0.04 0.56 0.56 94 1006.9
20260505212844 53 299 1.0 5.0 0.06 0.56 0.56 94 1006.9
20260505212344 53 290 1.0 3.0 0.06 0.56 0.56 94 1006.9
20260505211844 53 273 1.0 4.0 0.08 0.56 0.55 94 1007.0
20260505211343 53 273 2.0 4.0 0.08 0.55 0.55 94 1007.0
20260505210844 53 312 1.0 4.0 0.08 0.55 0.55 94 1007.0
20260505210344 53 288 1.0 5.0 0.09 0.55 0.55 94 1007.1
20260505210116 53 286 2.0 5.0 0.10 0.55 0.55 94 1007.1
20260505205344 53 286 2.0 4.0 0.10 0.54 0.54 94 1007.1
20260505204844 53 293 2.0 5.0 0.10 0.54 0.54 94 1007.2
20260505203844 53 279 1.0 7.0 0.10 0.53 0.53 94 1007.1
20260505203339 54 268 1.0 7.0 0.09 0.52 0.51 94 1007.1
20260505202840 54 244 2.0 7.0 0.09 0.50 0.50 93 1007.1
20260505202618 54 292 2.0 7.0 0.09 0.50 0.49 94 1007.1
20260505201839 54 279 1.0 4.0 0.09 0.48 0.48 94 1007.1
20260505201339 54 279 1.0 3.0 0.09 0.47 0.47 94 1007.1
20260505200838 54 276 1.0 3.0 0.09 0.47 0.46 94 1007.0
20260505200611 54 290 1.0 3.0 0.09 0.46 0.46 94 1006.9
20260505195841 54 270 1.0 4.0 0.09 0.45 0.45 94 1006.9
20260505195609 54 270 1.0 4.0 0.09 0.44 0.44 94 1006.9
20260505194839 54 293 2.0 4.0 0.08 0.43 0.43 94 1006.8
20260505194338 55 273 2.0 4.0 0.09 0.43 0.43 94 1006.9
20260505193835 55 296 1.0 4.0 0.09 0.43 0.43 94 1006.7
20260505193331 55 288 1.0 4.0 0.09 0.43 0.42 94 1006.7
20260505192832 55 320 1.0 3.0 0.09 0.42 0.42 94 1006.7
20260505192331 55 299 0.0 3.0 0.08 0.41 0.40 94 1006.7
20260505191831 55 291 0.0 3.0 0.06 0.39 0.39 94 1006.7
20260505191333 55 236 0.0 2.0 0.06 0.39 0.39 94 1006.7
20260505190832 55 236 1.0 4.0 0.06 0.38 0.38 93 1006.6
20260505190331 55 293 1.0 4.0 0.05 0.37 0.37 93 1006.7
20260505185832 55 292 1.0 4.0 0.05 0.36 0.36 93 1006.7
20260505185329 55 248 1.0 4.0 0.04 0.35 0.35 93 1006.6
20260505184829 55 242 0.0 3.0 0.04 0.35 0.35 93 1006.7
20260505184329 55 263 1.0 4.0 0.04 0.35 0.35 93 1006.8
20260505184059 56 241 1.0 4.0 0.03 0.34 0.34 93 1006.8
20260505183558 56 275 0.0 3.0 0.03 0.34 0.34 93 1006.7
20260505182830 56 200 0.0 2.0 0.03 0.33 0.33 93 1006.8
20260505182329 56 200 1.0 3.0 0.03 0.33 0.33 93 1006.7
20260505181829 56 203 1.0 3.0 0.03 0.33 0.32 93 1006.8
20260505181329 56 198 1.0 3.0 0.03 0.32 0.32 93 1006.8
20260505180829 56 186 1.0 2.0 0.03 0.32 0.32 93 1006.7
20260505180602 56 188 1.0 3.0 0.04 0.32 0.32 93 1006.8
20260505175830 56 188 1.0 3.0 0.03 0.31 0.31 93 1006.7
20260505175606 56 188 0.0 3.0 0.03 0.31 0.31 93 1006.8
20260505175101 56 188 0.0 3.0 0.04 0.31 0.31 93 1006.9
20260505174331 56 207 0.0 1.0 0.03 0.31 0.31 93 1006.9
20260505173830 56 207 0.0 1.0 0.04 0.31 0.31 93 1007.0
20260505173328 56 207 0.0 1.0 0.04 0.31 0.31 93 1007.0
20260505172830 57 207 0.0 2.0 0.04 0.30 0.30 93 1007.0
20260505172329 57 207 0.0 2.0 0.04 0.30 0.30 93 1006.9
20260505171829 57 199 0.0 2.0 0.05 0.30 0.29 93 1007.1
20260505171559 57 199 0.0 2.0 0.06 0.29 0.29 93 1007.2
20260505170829 57 199 0.0 1.0 0.08 0.29 0.29 93 1007.1
20260505170603 57 199 0.0 1.0 0.09 0.28 0.28 93 1007.1
20260505165833 57 199 0.0 1.0 0.12 0.28 0.28 93 1007.1
20260505165329 57 199 0.0 1.0 0.13 0.28 0.28 93 1007.2
20260505165101 57 236 0.0 1.0 0.14 0.28 0.28 93 1007.2
20260505164331 57 234 0.0 2.0 0.16 0.28 0.28 93 1007.1
20260505163829 57 205 0.0 2.0 0.19 0.27 0.27 93 1007.3
20260505163328 57 324 0.0 1.0 0.22 0.27 0.27 93 1007.3
20260505162833 57 324 0.0 1.0 0.21 0.26 0.26 93 1007.3
20260505162330 57 324 0.0 2.0 0.22 0.26 0.25 92 1007.3
20260505161829 57 33 0.0 2.0 0.21 0.25 0.24 92 1007.4
20260505161331 57 41 0.0 1.0 0.20 0.24 0.23 92 1007.3
20260505161052 57 41 0.0 1.0 0.17 0.21 0.21 91 1007.4
20260505160325 57 41 0.0 2.0 0.17 0.20 0.19 91 1007.4
20260505152312 58 307 0.0 2.0 0.02 0.05 0.04 91 1007.4
20260505151813 58 307 0.0 2.0 0.02 0.05 0.04 91 1007.4
20260505151313 58 307 0.0 2.0 0.02 0.05 0.04 91 1007.4
20260505150813 58 307 0.0 2.0 0.03 0.05 0.04 91 1007.4
20260505150312 58 5 0.0 2.0 0.02 0.04 0.03 91 1007.5
20260505140307 59 305 1.0 2.0 0.01 0.03 0.01 82 1007.6
20260505130302 62 42 1.0 3.0 0.00 0.02 0.00 77 1007.9
20260505124801 62 69 2.0 4.0 0.00 0.02 0.00 77 1008.1
20260505124527 62 64 2.0 4.0 0.00 0.02 0.00 79 1008.0
20260505123801 62 68 2.0 4.0 0.00 0.02 0.00 79 1008.1
20260505123301 62 19 2.0 4.0 0.00 0.02 0.00 78 1008.1
20260505122802 62 60 2.0 5.0 0.00 0.02 0.00 79 1008.1
20260505122305 62 281 1.0 5.0 0.00 0.02 0.00 79 1008.2
20260505122027 62 46 2.0 4.0 0.00 0.02 0.00 79 1008.2
20260505121302 62 44 1.0 3.0 0.00 0.02 0.00 82 1008.2
20260505120801 61 34 2.0 4.0 0.00 0.02 0.00 82 1008.3
20260505120317 61 44 2.0 4.0 0.00 0.02 0.00 81 1008.4
20260505115025 60 51 2.0 3.0 0.00 0.02 0.00 83 1008.5
20260505114258 60 51 2.0 4.0 0.00 0.02 0.00 82 1008.6
20260505113752 60 50 2.0 4.0 0.00 0.02 0.00 81 1008.6
20260505113246 60 51 2.0 3.0 0.00 0.02 0.00 80 1008.7
20260505112740 61 59 2.0 3.0 0.00 0.02 0.00 79 1008.7